Time,TemperatureF,DewpointF,PressureIn,WindDirection,WindDirectionDegrees,WindSpeedMPH,WindSpeedGustMPH,Humidity,HourlyPrecipIn,Conditions,Clouds,dailyrainin,SoftwareType,DateUTC
2013-03-16 00:02:00,54.2,46.5,29.73,West,278,0.0,0.0,75,0.00,,---,0.00,VWS V14.00,2013-03-16 07:02:00,
2013-03-16 00:07:00,54.1,46.7,29.73,West,278,0.0,0.0,76,0.00,,---,0.00,VWS V14.00,2013-03-16 07:07:00,
2013-03-16 00:12:00,53.9,46.5,29.73,West,278,0.0,0.0,76,0.00,,---,0.00,VWS V14.00,2013-03-16 07:12:00,
2013-03-16 00:17:00,53.8,46.4,29.73,West,278,0.0,0.0,76,0.00,,---,0.00,VWS V14.00,2013-03-16 07:17:00,
2013-03-16 00:22:00,53.5,46.5,29.73,West,278,0.0,0.0,77,0.00,,---,0.00,VWS V14.00,2013-03-16 07:22:00,
2013-03-16 00:27:00,53.3,46.3,29.73,West,278,0.0,0.0,77,0.00,,---,0.00,VWS V14.00,2013-03-16 07:27:00,
2013-03-16 00:32:00,53.2,46.2,29.73,West,278,0.0,0.0,77,0.00,,---,0.00,VWS V14.00,2013-03-16 07:32:00,
2013-03-16 00:37:00,52.9,45.9,29.72,West,278,0.0,0.0,77,0.00,,---,0.00,VWS V14.00,2013-03-16 07:37:00,
2013-03-16 00:42:00,52.8,46.1,29.72,West,278,0.0,0.0,78,0.00,,---,0.00,VWS V14.00,2013-03-16 07:42:00,
2013-03-16 00:47:00,52.6,46.0,29.72,West,278,0.0,0.0,78,0.00,,---,0.00,VWS V14.00,2013-03-16 07:47:00,
2013-03-16 00:52:00,52.5,46.2,29.72,West,278,0.0,0.0,79,0.00,,---,0.00,VWS V14.00,2013-03-16 07:52:00,
2013-03-16 00:57:00,52.3,46.0,29.72,West,278,0.0,0.0,79,0.00,,---,0.00,VWS V14.00,2013-03-16 07:57:00,
2013-03-16 01:02:00,52.3,46.0,29.72,West,278,0.0,0.0,79,0.00,,---,0.00,VWS V14.00,2013-03-16 08:02:00,
2013-03-16 01:07:00,52.2,45.9,29.72,West,278,0.0,0.0,79,0.00,,---,0.00,VWS V14.00,2013-03-16 08:07:00,
2013-03-16 01:12:00,52.2,45.9,29.72,West,278,0.0,0.0,79,0.00,,---,0.00,VWS V14.00,2013-03-16 08:12:00,
2013-03-16 01:17:00,52.0,45.7,29.72,West,278,0.0,0.0,79,0.00,,---,0.00,VWS V14.00,2013-03-16 08:17:00,
2013-03-16 01:22:00,51.9,45.6,29.71,West,278,0.0,0.0,79,0.00,,---,0.00,VWS V14.00,2013-03-16 08:22:00,
2013-03-16 01:27:00,51.7,45.4,29.71,West,278,0.0,0.0,79,0.00,,---,0.00,VWS V14.00,2013-03-16 08:27:00,
2013-03-16 01:32:00,51.7,45.1,29.71,West,278,0.0,0.0,78,0.00,,---,0.00,VWS V14.00,2013-03-16 08:32:00,
2013-03-16 01:37:00,51.6,45.0,29.71,West,278,0.0,0.0,78,0.00,,---,0.00,VWS V14.00,2013-03-16 08:37:00,
2013-03-16 01:42:00,51.4,44.8,29.71,West,278,0.0,0.0,78,0.00,,---,0.00,VWS V14.00,2013-03-16 08:42:00,
2013-03-16 01:47:00,51.1,44.5,29.71,West,278,0.0,0.0,78,0.00,,---,0.00,VWS V14.00,2013-03-16 08:47:00,
2013-03-16 01:52:00,50.8,44.5,29.71,West,278,0.0,0.0,79,0.00,,---,0.00,VWS V14.00,2013-03-16 08:52:00,
2013-03-16 01:57:00,50.7,44.8,29.71,West,278,0.0,0.0,80,0.00,,---,0.00,VWS V14.00,2013-03-16 08:57:00,
2013-03-16 02:02:00,50.5,44.6,29.71,West,278,0.0,0.0,80,0.00,,---,0.00,VWS V14.00,2013-03-16 09:02:00,
2013-03-16 02:07:00,50.4,44.5,29.71,West,278,0.0,0.0,80,0.00,,---,0.00,VWS V14.00,2013-03-16 09:07:00,
2013-03-16 02:12:00,50.2,44.3,29.71,West,278,0.0,0.0,80,0.00,,---,0.00,VWS V14.00,2013-03-16 09:12:00,
2013-03-16 02:17:00,50.1,44.2,29.71,West,278,0.0,0.0,80,0.00,,---,0.00,VWS V14.00,2013-03-16 09:17:00,
2013-03-16 02:22:00,49.9,44.3,29.71,West,278,0.0,0.0,81,0.00,,---,0.00,VWS V14.00,2013-03-16 09:22:00,
2013-03-16 02:27:00,49.9,44.3,29.71,West,278,0.0,0.0,81,0.00,,---,0.00,VWS V14.00,2013-03-16 09:27:00,
2013-03-16 02:32:00,49.8,44.5,29.71,West,278,0.0,0.0,82,0.00,,---,0.00,VWS V14.00,2013-03-16 09:32:00,
2013-03-16 02:37:00,49.6,44.3,29.72,West,278,0.0,0.0,82,0.00,,---,0.00,VWS V14.00,2013-03-16 09:37:00,
2013-03-16 02:42:00,49.6,44.7,29.72,West,278,0.0,0.0,83,0.00,,---,0.00,VWS V14.00,2013-03-16 09:42:00,
2013-03-16 02:47:00,49.5,44.6,29.72,West,278,0.0,0.0,83,0.00,,---,0.00,VWS V14.00,2013-03-16 09:47:00,
2013-03-16 02:52:00,49.4,44.5,29.72,West,278,0.0,0.0,83,0.00,,---,0.00,VWS V14.00,2013-03-16 09:52:00,
2013-03-16 02:57:00,49.2,44.3,29.72,West,278,0.0,0.0,83,0.00,,---,0.00,VWS V14.00,2013-03-16 09:57:00,
2013-03-16 03:02:00,49.1,44.2,29.72,West,278,0.0,0.0,83,0.00,,---,0.00,VWS V14.00,2013-03-16 10:02:00,
2013-03-16 03:07:00,48.9,44.0,29.72,West,278,0.0,0.0,83,0.00,,---,0.00,VWS V14.00,2013-03-16 10:07:00,
2013-03-16 03:12:00,48.9,44.3,29.72,West,278,0.0,0.0,84,0.00,,---,0.00,VWS V14.00,2013-03-16 10:12:00,
2013-03-16 03:17:00,48.8,44.2,29.72,West,278,0.0,0.0,84,0.00,,---,0.00,VWS V14.00,2013-03-16 10:17:00,
2013-03-16 03:22:00,48.9,44.3,29.71,West,278,0.0,0.0,84,0.00,,---,0.00,VWS V14.00,2013-03-16 10:22:00,
2013-03-16 03:27:00,48.8,43.9,29.71,West,278,0.0,0.0,83,0.00,,---,0.00,VWS V14.00,2013-03-16 10:27:00,
2013-03-16 03:32:00,48.6,44.0,29.71,West,278,0.0,0.0,84,0.00,,---,0.00,VWS V14.00,2013-03-16 10:32:00,
2013-03-16 03:37:00,48.6,44.0,29.72,West,278,0.0,0.0,84,0.00,,---,0.00,VWS V14.00,2013-03-16 10:37:00,
2013-03-16 03:42:00,48.5,43.9,29.72,West,278,0.0,0.0,84,0.00,,---,0.00,VWS V14.00,2013-03-16 10:42:00,
2013-03-16 03:47:00,48.3,43.7,29.72,West,278,0.0,0.0,84,0.00,,---,0.00,VWS V14.00,2013-03-16 10:47:00,
2013-03-16 03:52:00,48.2,43.6,29.71,West,278,0.0,0.0,84,0.00,,---,0.00,VWS V14.00,2013-03-16 10:52:00,
2013-03-16 03:57:00,48.0,43.4,29.71,West,278,0.0,0.0,84,0.00,,---,0.00,VWS V14.00,2013-03-16 10:57:00,
2013-03-16 04:02:00,47.9,43.6,29.71,West,278,0.0,0.0,85,0.00,,---,0.00,VWS V14.00,2013-03-16 11:02:00,
2013-03-16 04:07:00,47.9,43.6,29.72,West,278,0.0,0.0,85,0.00,,---,0.00,VWS V14.00,2013-03-16 11:07:00,
2013-03-16 04:12:00,47.7,43.4,29.72,West,278,0.0,0.0,85,0.00,,---,0.00,VWS V14.00,2013-03-16 11:12:00,
2013-03-16 04:17:00,47.6,43.3,29.72,West,278,0.0,0.0,85,0.00,,---,0.00,VWS V14.00,2013-03-16 11:17:00,
2013-03-16 04:22:00,47.6,43.6,29.72,West,278,0.0,0.0,86,0.00,,---,0.00,VWS V14.00,2013-03-16 11:22:00,
2013-03-16 04:27:00,47.4,43.4,29.72,West,278,0.0,0.0,86,0.00,,---,0.00,VWS V14.00,2013-03-16 11:27:00,
2013-03-16 04:32:00,47.3,43.3,29.72,West,278,0.0,0.0,86,0.00,,---,0.00,VWS V14.00,2013-03-16 11:32:00,
2013-03-16 04:37:00,47.1,43.1,29.71,West,278,0.0,0.0,86,0.00,,---,0.00,VWS V14.00,2013-03-16 11:37:00,
2013-03-16 04:42:00,47.0,43.0,29.71,West,278,0.0,0.0,86,0.00,,---,0.00,VWS V14.00,2013-03-16 11:42:00,
2013-03-16 04:47:00,47.0,42.7,29.71,West,278,0.0,0.0,85,0.00,,---,0.00,VWS V14.00,2013-03-16 11:47:00,
2013-03-16 04:52:00,47.0,42.7,29.70,West,278,0.0,0.0,85,0.00,,---,0.00,VWS V14.00,2013-03-16 11:52:00,
2013-03-16 04:57:00,47.0,42.7,29.70,West,278,0.0,0.0,85,0.00,,---,0.00,VWS V14.00,2013-03-16 11:57:00,
2013-03-16 05:02:00,46.8,42.2,29.70,West,278,0.0,0.0,84,0.00,,---,0.00,VWS V14.00,2013-03-16 12:02:00,
2013-03-16 05:07:00,46.7,42.4,29.71,West,278,0.0,0.0,85,0.00,,---,0.00,VWS V14.00,2013-03-16 12:07:00,
2013-03-16 05:12:00,46.5,42.2,29.71,West,278,0.0,0.0,85,0.00,,---,0.00,VWS V14.00,2013-03-16 12:12:00,
2013-03-16 05:17:00,46.4,42.1,29.71,West,278,0.0,0.0,85,0.00,,---,0.00,VWS V14.00,2013-03-16 12:17:00,
2013-03-16 05:22:00,46.4,42.1,29.71,West,278,0.0,0.0,85,0.00,,---,0.00,VWS V14.00,2013-03-16 12:22:00,
2013-03-16 05:27:00,46.2,42.2,29.71,West,278,0.0,0.0,86,0.00,,---,0.00,VWS V14.00,2013-03-16 12:27:00,
2013-03-16 05:32:00,46.1,42.2,29.71,West,278,0.0,0.0,86,0.00,,---,0.00,VWS V14.00,2013-03-16 12:32:00,
2013-03-16 05:37:00,46.0,42.0,29.71,West,278,0.0,0.0,86,0.00,,---,0.00,VWS V14.00,2013-03-16 12:37:00,
2013-03-16 05:42:00,45.8,41.9,29.71,West,278,0.0,0.0,86,0.00,,---,0.00,VWS V14.00,2013-03-16 12:42:00,
2013-03-16 05:47:00,45.8,41.9,29.71,West,278,0.0,0.0,86,0.00,,---,0.00,VWS V14.00,2013-03-16 12:47:00,
2013-03-16 05:52:00,45.7,41.8,29.71,West,278,0.0,0.0,86,0.00,,---,0.00,VWS V14.00,2013-03-16 12:52:00,
2013-03-16 05:57:00,45.7,41.8,29.71,West,278,0.0,0.0,86,0.00,,---,0.00,VWS V14.00,2013-03-16 12:57:00,
2013-03-16 06:02:00,45.5,41.6,29.71,West,278,0.0,0.0,86,0.00,,---,0.00,VWS V14.00,2013-03-16 13:02:00,
2013-03-16 06:07:00,45.4,41.5,29.71,West,278,0.0,0.0,86,0.00,,---,0.00,VWS V14.00,2013-03-16 13:07:00,
2013-03-16 06:12:00,45.4,41.5,29.71,West,278,0.0,0.0,86,0.00,,---,0.00,VWS V14.00,2013-03-16 13:12:00,
2013-03-16 06:17:00,45.2,41.3,29.71,West,278,0.0,0.0,86,0.00,,---,0.00,VWS V14.00,2013-03-16 13:17:00,
2013-03-16 06:22:00,45.2,41.6,29.72,West,278,0.0,0.0,87,0.00,,---,0.00,VWS V14.00,2013-03-16 13:22:00,
2013-03-16 06:27:00,45.1,41.5,29.72,West,278,0.0,0.0,87,0.00,,---,0.00,VWS V14.00,2013-03-16 13:27:00,
2013-03-16 06:32:00,44.9,41.3,29.72,West,278,0.0,0.0,87,0.00,,---,0.00,VWS V14.00,2013-03-16 13:32:00,
2013-03-16 06:37:00,44.9,41.3,29.71,West,278,0.0,0.0,87,0.00,,---,0.00,VWS V14.00,2013-03-16 13:37:00,
2013-03-16 06:42:00,44.9,41.3,29.71,West,278,0.0,0.0,87,0.00,,---,0.00,VWS V14.00,2013-03-16 13:42:00,
2013-03-16 06:47:00,45.1,41.5,29.71,West,278,0.0,0.0,87,0.00,,---,0.00,VWS V14.00,2013-03-16 13:47:00,
2013-03-16 06:52:00,45.1,41.5,29.70,West,278,0.0,0.0,87,0.00,,---,0.00,VWS V14.00,2013-03-16 13:52:00,
2013-03-16 06:57:00,44.9,41.3,29.70,West,278,0.0,0.0,87,0.00,,---,0.00,VWS V14.00,2013-03-16 13:57:00,
2013-03-16 07:02:00,44.9,41.3,29.70,West,278,0.0,0.0,87,0.00,,---,0.00,VWS V14.00,2013-03-16 14:02:00,
2013-03-16 07:07:00,44.8,41.2,29.70,West,278,0.0,0.0,87,0.00,,---,0.00,VWS V14.00,2013-03-16 14:07:00,
2013-03-16 07:12:00,44.8,41.2,29.70,West,278,0.0,0.0,87,0.00,,---,0.00,VWS V14.00,2013-03-16 14:12:00,
2013-03-16 07:17:00,44.6,41.0,29.70,West,278,0.0,0.0,87,0.00,,---,0.00,VWS V14.00,2013-03-16 14:17:00,
2013-03-16 07:22:00,44.6,41.0,29.71,West,278,0.0,0.0,87,0.00,,---,0.00,VWS V14.00,2013-03-16 14:22:00,
2013-03-16 07:27:00,44.5,41.2,29.71,West,278,0.0,0.0,88,0.00,,---,0.00,VWS V14.00,2013-03-16 14:27:00,
2013-03-16 07:32:00,44.5,41.2,29.71,West,278,0.0,0.0,88,0.00,,---,0.00,VWS V14.00,2013-03-16 14:32:00,
2013-03-16 07:37:00,44.6,41.3,29.72,West,278,0.0,0.0,88,0.00,,---,0.00,VWS V14.00,2013-03-16 14:37:00,
2013-03-16 07:42:00,44.6,41.3,29.72,West,278,0.0,0.0,88,0.00,,---,0.00,VWS V14.00,2013-03-16 14:42:00,
2013-03-16 07:47:00,44.9,41.6,29.72,West,278,0.0,0.0,88,0.00,,---,0.00,VWS V14.00,2013-03-16 14:47:00,
2013-03-16 07:52:00,45.2,42.2,29.73,West,278,0.0,0.0,89,0.00,,---,0.00,VWS V14.00,2013-03-16 14:52:00,
2013-03-16 07:57:00,45.8,42.8,29.73,West,278,0.0,0.0,89,0.00,,---,0.00,VWS V14.00,2013-03-16 14:57:00,
2013-03-16 08:02:00,46.4,43.3,29.73,West,278,0.0,0.0,89,0.00,,---,0.00,VWS V14.00,2013-03-16 15:02:00,
2013-03-16 08:07:00,47.0,43.9,29.73,West,278,0.0,0.0,89,0.00,,---,0.00,VWS V14.00,2013-03-16 15:07:00,
2013-03-16 08:12:00,47.1,43.7,29.73,West,278,0.0,0.0,88,0.00,,---,0.00,VWS V14.00,2013-03-16 15:12:00,
2013-03-16 08:17:00,47.6,43.9,29.73,West,278,0.0,1.0,87,0.00,,---,0.00,VWS V14.00,2013-03-16 15:17:00,
2013-03-16 08:22:00,47.9,43.9,29.74,West,278,0.0,1.0,86,0.00,,---,0.00,VWS V14.00,2013-03-16 15:22:00,
2013-03-16 08:27:00,48.8,44.8,29.74,West,278,0.0,0.0,86,0.00,,---,0.00,VWS V14.00,2013-03-16 15:27:00,
2013-03-16 08:32:00,49.8,45.2,29.74,West,278,0.0,0.0,84,0.00,,---,0.00,VWS V14.00,2013-03-16 15:32:00,
2013-03-16 08:37:00,50.7,45.4,29.74,West,278,0.0,0.0,82,0.00,,---,0.00,VWS V14.00,2013-03-16 15:37:00,
2013-03-16 08:42:00,52.0,45.7,29.74,West,278,0.0,0.0,79,0.00,,---,0.00,VWS V14.00,2013-03-16 15:42:00,
2013-03-16 08:47:00,52.9,45.5,29.74,West,278,0.0,0.0,76,0.00,,---,0.00,VWS V14.00,2013-03-16 15:47:00,
2013-03-16 08:52:00,53.5,45.8,29.75,West,278,0.0,0.0,75,0.00,,---,0.00,VWS V14.00,2013-03-16 15:52:00,
2013-03-16 08:57:00,53.5,46.1,29.75,West,278,0.0,0.0,76,0.00,,---,0.00,VWS V14.00,2013-03-16 15:57:00,
2013-03-16 09:02:00,54.1,46.4,29.75,West,278,0.0,0.0,75,0.00,,---,0.00,VWS V14.00,2013-03-16 16:02:00,
2013-03-16 09:07:00,54.2,46.1,29.76,West,278,0.0,0.0,74,0.00,,---,0.00,VWS V14.00,2013-03-16 16:07:00,
2013-03-16 09:12:00,54.7,46.2,29.76,West,278,0.0,0.0,73,0.00,,---,0.00,VWS V14.00,2013-03-16 16:12:00,
2013-03-16 09:17:00,55.3,46.4,29.76,WNW,290,0.0,1.0,72,0.00,,---,0.00,VWS V14.00,2013-03-16 16:17:00,
2013-03-16 09:22:00,55.6,46.4,29.77,WNW,290,0.0,1.0,71,0.00,,---,0.00,VWS V14.00,2013-03-16 16:22:00,
2013-03-16 09:27:00,55.6,46.0,29.77,WNW,290,0.0,0.0,70,0.00,,---,0.00,VWS V14.00,2013-03-16 16:27:00,
2013-03-16 09:32:00,55.6,45.6,29.77,WNW,290,0.0,0.0,69,0.00,,---,0.00,VWS V14.00,2013-03-16 16:32:00,
2013-03-16 09:37:00,56.0,46.0,29.77,WNW,290,0.0,0.0,69,0.00,,---,0.00,VWS V14.00,2013-03-16 16:37:00,
2013-03-16 09:42:00,56.5,46.5,29.77,WNW,290,0.0,1.0,69,0.00,,---,0.00,VWS V14.00,2013-03-16 16:42:00,
2013-03-16 09:47:00,56.9,46.5,29.77,WNW,290,0.0,0.0,68,0.00,,---,0.00,VWS V14.00,2013-03-16 16:47:00,
2013-03-16 09:52:00,57.3,46.5,29.77,WNW,290,0.0,0.0,67,0.00,,---,0.00,VWS V14.00,2013-03-16 16:52:00,
2013-03-16 09:57:00,58.4,47.1,29.77,WNW,290,0.0,1.0,66,0.00,,---,0.00,VWS V14.00,2013-03-16 16:57:00,
2013-03-16 10:02:00,59.6,47.0,29.77,WNW,290,0.0,0.0,63,0.00,,---,0.00,VWS V14.00,2013-03-16 17:02:00,
2013-03-16 10:07:00,60.2,47.2,29.76,WNW,290,0.0,4.0,62,0.00,,---,0.00,VWS V14.00,2013-03-16 17:07:00,
2013-03-16 10:12:00,61.0,47.5,29.76,WNW,290,0.0,0.0,61,0.00,,---,0.00,VWS V14.00,2013-03-16 17:12:00,
2013-03-16 10:17:00,61.5,47.1,29.76,WNW,289,0.0,0.0,59,0.00,,---,0.00,VWS V14.00,2013-03-16 17:17:00,
2013-03-16 10:22:00,61.3,46.9,29.76,WNW,289,0.0,0.0,59,0.00,,---,0.00,VWS V14.00,2013-03-16 17:22:00,
2013-03-16 10:27:00,62.0,46.1,29.76,WNW,290,0.0,1.0,56,0.00,,---,0.00,VWS V14.00,2013-03-16 17:27:00,
2013-03-16 10:32:00,62.7,46.3,29.76,WNW,291,0.0,0.0,55,0.00,,---,0.00,VWS V14.00,2013-03-16 17:32:00,
2013-03-16 10:37:00,63.4,46.5,29.75,WNW,291,0.0,1.0,54,0.00,,---,0.00,VWS V14.00,2013-03-16 17:37:00,
2013-03-16 10:42:00,64.0,46.5,29.75,WNW,291,0.0,0.0,53,0.00,,---,0.00,VWS V14.00,2013-03-16 17:42:00,
2013-03-16 10:47:00,64.7,47.2,29.75,WNW,291,0.0,1.0,53,0.00,,---,0.00,VWS V14.00,2013-03-16 17:47:00,
2013-03-16 10:52:00,64.2,48.7,29.75,WNW,288,0.0,4.0,57,0.00,,---,0.00,VWS V14.00,2013-03-16 17:52:00,
2013-03-16 10:57:00,64.3,47.3,29.75,WNW,288,0.0,1.0,54,0.00,,---,0.00,VWS V14.00,2013-03-16 17:57:00,
2013-03-16 11:02:00,64.8,47.3,29.75,WSW,251,0.0,6.0,53,0.00,,---,0.00,VWS V14.00,2013-03-16 18:02:00,
2013-03-16 11:07:00,64.7,47.7,29.75,WSW,248,1.0,6.0,54,0.00,,---,0.00,VWS V14.00,2013-03-16 18:07:00,
2013-03-16 11:12:00,64.8,47.3,29.75,WSW,251,1.0,4.0,53,0.00,,---,0.00,VWS V14.00,2013-03-16 18:12:00,
2013-03-16 11:17:00,65.6,48.5,29.75,West,268,4.0,5.0,54,0.00,,---,0.00,VWS V14.00,2013-03-16 18:17:00,
2013-03-16 11:22:00,66.1,48.0,29.74,West,269,0.0,1.0,52,0.00,,---,0.00,VWS V14.00,2013-03-16 18:22:00,
2013-03-16 11:27:00,66.4,48.3,29.74,West,269,0.0,1.0,52,0.00,,---,0.00,VWS V14.00,2013-03-16 18:27:00,
2013-03-16 11:32:00,66.6,47.9,29.74,SW,219,3.0,8.0,51,0.00,,---,0.00,VWS V14.00,2013-03-16 18:32:00,
2013-03-16 11:37:00,66.3,48.2,29.74,SW,220,5.0,6.0,52,0.00,,---,0.00,VWS V14.00,2013-03-16 18:37:00,
2013-03-16 11:42:00,66.3,47.7,29.74,SW,220,1.0,4.0,51,0.00,,---,0.00,VWS V14.00,2013-03-16 18:42:00,
2013-03-16 11:47:00,66.6,48.4,29.74,WSW,253,6.0,8.0,52,0.00,,---,0.00,VWS V14.00,2013-03-16 18:47:00,
2013-03-16 11:52:00,66.3,49.2,29.74,West,260,4.0,8.0,54,0.00,,---,0.00,VWS V14.00,2013-03-16 18:52:00,
2013-03-16 11:57:00,66.3,48.7,29.74,West,264,6.0,8.0,53,0.00,,---,0.00,VWS V14.00,2013-03-16 18:57:00,
2013-03-16 12:02:00,65.8,48.2,29.74,West,264,6.0,11.0,53,0.00,,---,0.00,VWS V14.00,2013-03-16 19:02:00,
2013-03-16 12:07:00,65.8,48.7,29.75,WNW,286,2.0,8.0,54,0.00,,---,0.00,VWS V14.00,2013-03-16 19:07:00,
2013-03-16 12:12:00,66.0,48.4,29.75,WSW,244,4.0,10.0,53,0.00,,---,0.00,VWS V14.00,2013-03-16 19:12:00,
2013-03-16 12:17:00,66.4,48.8,29.75,SW,227,5.0,9.0,53,0.00,,---,0.00,VWS V14.00,2013-03-16 19:17:00,
2013-03-16 12:22:00,66.4,48.3,29.75,SSW,208,4.0,10.0,52,0.00,,---,0.00,VWS V14.00,2013-03-16 19:22:00,
2013-03-16 12:27:00,66.4,48.3,29.75,West,272,5.0,9.0,52,0.00,,---,0.00,VWS V14.00,2013-03-16 19:27:00,
2013-03-16 12:32:00,67.3,47.0,29.75,SW,215,7.0,8.0,48,0.00,,---,0.00,VWS V14.00,2013-03-16 19:32:00,
2013-03-16 12:37:00,67.4,47.0,29.75,WSW,246,2.0,8.0,48,0.00,,---,0.00,VWS V14.00,2013-03-16 19:37:00,
2013-03-16 12:42:00,68.4,45.0,29.75,WNW,282,4.0,6.0,43,0.00,,---,0.00,VWS V14.00,2013-03-16 19:42:00,
2013-03-16 12:47:00,69.4,45.3,29.75,WNW,289,0.0,8.0,42,0.00,,---,0.00,VWS V14.00,2013-03-16 19:47:00,
2013-03-16 12:52:00,69.4,45.3,29.75,WNW,289,6.0,9.0,42,0.00,,---,0.00,VWS V14.00,2013-03-16 19:52:00,
2013-03-16 12:57:00,69.3,44.6,29.75,West,276,1.0,8.0,41,0.00,,---,0.00,VWS V14.00,2013-03-16 19:57:00,
2013-03-16 13:02:00,69.3,44.6,29.75,NW,308,0.0,8.0,41,0.00,,---,0.00,VWS V14.00,2013-03-16 20:02:00,
2013-03-16 13:07:00,69.4,42.7,29.75,WSW,252,4.0,9.0,38,0.00,,---,0.00,VWS V14.00,2013-03-16 20:07:00,
2013-03-16 13:12:00,69.1,42.5,29.75,WSW,250,6.0,8.0,38,0.00,,---,0.00,VWS V14.00,2013-03-16 20:12:00,
2013-03-16 13:17:00,69.1,41.8,29.75,WSW,242,6.0,6.0,37,0.00,,---,0.00,VWS V14.00,2013-03-16 20:17:00,
2013-03-16 13:22:00,69.4,42.0,29.74,West,265,6.0,9.0,37,0.00,,---,0.00,VWS V14.00,2013-03-16 20:22:00,
2013-03-16 13:27:00,69.8,43.8,29.74,West,273,4.0,5.0,39,0.00,,---,0.00,VWS V14.00,2013-03-16 20:27:00,
2013-03-16 13:32:00,70.4,42.9,29.74,WNW,300,2.0,6.0,37,0.00,,---,0.00,VWS V14.00,2013-03-16 20:32:00,
2013-03-16 13:37:00,71.5,43.2,29.73,NW,317,3.0,5.0,36,0.00,,---,0.00,VWS V14.00,2013-03-16 20:37:00,
2013-03-16 13:42:00,72.3,43.9,29.73,NW,316,0.0,5.0,36,0.00,,---,0.00,VWS V14.00,2013-03-16 20:42:00,
2013-03-16 13:47:00,72.8,41.3,29.73,North,356,0.0,4.0,32,0.00,,---,0.00,VWS V14.00,2013-03-16 20:47:00,
2013-03-16 13:52:00,73.0,41.4,29.72,NNW,337,3.0,6.0,32,0.00,,---,0.00,VWS V14.00,2013-03-16 20:52:00,
2013-03-16 13:57:00,73.0,42.2,29.72,NW,320,2.0,4.0,33,0.00,,---,0.00,VWS V14.00,2013-03-16 20:57:00,
2013-03-16 14:02:00,73.3,40.9,29.72,NW,321,0.0,2.0,31,0.00,,---,0.00,VWS V14.00,2013-03-16 21:02:00,
2013-03-16 14:07:00,73.2,40.8,29.70,NW,322,0.0,2.0,31,0.00,,---,0.00,VWS V14.00,2013-03-16 21:07:00,
2013-03-16 14:12:00,73.3,41.7,29.70,WSW,243,5.0,5.0,32,0.00,,---,0.00,VWS V14.00,2013-03-16 21:12:00,
2013-03-16 14:17:00,73.0,41.4,29.70,WSW,258,0.0,5.0,32,0.00,,---,0.00,VWS V14.00,2013-03-16 21:17:00,
2013-03-16 14:22:00,73.9,41.4,29.70,WNW,303,0.0,6.0,31,0.00,,---,0.00,VWS V14.00,2013-03-16 21:22:00,
2013-03-16 14:27:00,74.6,40.3,29.70,WNW,300,1.0,4.0,29,0.00,,---,0.00,VWS V14.00,2013-03-16 21:27:00,
2013-03-16 14:32:00,75.1,40.7,29.70,WNW,302,1.0,1.0,29,0.00,,---,0.00,VWS V14.00,2013-03-16 21:32:00,
2013-03-16 14:37:00,75.1,40.7,29.70,WSW,258,0.0,6.0,29,0.00,,---,0.00,VWS V14.00,2013-03-16 21:37:00,
2013-03-16 14:42:00,75.1,40.7,29.70,WSW,249,5.0,5.0,29,0.00,,---,0.00,VWS V14.00,2013-03-16 21:42:00,
2013-03-16 14:47:00,74.7,40.4,29.70,NW,309,5.0,7.0,29,0.00,,---,0.00,VWS V14.00,2013-03-16 21:47:00,
2013-03-16 14:52:00,75.4,41.0,29.70,NW,321,0.0,2.0,29,0.00,,---,0.00,VWS V14.00,2013-03-16 21:52:00,
2013-03-16 14:57:00,76.0,39.6,29.70,WSW,256,6.0,7.0,27,0.00,,---,0.00,VWS V14.00,2013-03-16 21:57:00,
2013-03-16 15:02:00,76.0,40.6,29.70,West,264,5.0,8.0,28,0.00,,---,0.00,VWS V14.00,2013-03-16 22:02:00,
2013-03-16 15:07:00,76.0,36.6,29.69,West,275,7.0,10.0,24,0.00,,---,0.00,VWS V14.00,2013-03-16 22:07:00,
2013-03-16 15:12:00,76.0,39.6,29.69,WNW,300,2.0,7.0,27,0.00,,---,0.00,VWS V14.00,2013-03-16 22:12:00,
2013-03-16 15:17:00,76.1,38.8,29.69,WNW,283,5.0,5.0,26,0.00,,---,0.00,VWS V14.00,2013-03-16 22:17:00,
2013-03-16 15:22:00,76.1,39.7,29.69,NNW,346,6.0,6.0,27,0.00,,---,0.00,VWS V14.00,2013-03-16 22:22:00,
2013-03-16 15:27:00,76.5,38.1,29.69,West,269,3.0,5.0,25,0.00,,---,0.00,VWS V14.00,2013-03-16 22:27:00,
2013-03-16 15:32:00,76.3,37.9,29.69,NNW,341,2.0,10.0,25,0.00,,---,0.00,VWS V14.00,2013-03-16 22:32:00,
2013-03-16 15:37:00,76.5,40.1,29.69,NE,36,0.0,4.0,27,0.00,,---,0.00,VWS V14.00,2013-03-16 22:37:00,
2013-03-16 15:42:00,77.0,39.5,29.69,NNW,342,0.0,7.0,26,0.00,,---,0.00,VWS V14.00,2013-03-16 22:42:00,
2013-03-16 15:47:00,77.2,37.7,29.69,WNW,288,2.0,7.0,24,0.00,,---,0.00,VWS V14.00,2013-03-16 22:47:00,
2013-03-16 15:52:00,77.4,38.9,29.69,NNW,339,0.0,4.0,25,0.00,,---,0.00,VWS V14.00,2013-03-16 22:52:00,
2013-03-16 15:57:00,77.7,37.0,29.69,WNW,297,1.0,2.0,23,0.00,,---,0.00,VWS V14.00,2013-03-16 22:57:00,
2013-03-16 16:02:00,77.6,35.8,29.69,WNW,293,0.0,7.0,22,0.00,,---,0.00,VWS V14.00,2013-03-16 23:02:00,
2013-03-16 16:07:00,77.2,36.6,29.69,WSW,258,5.0,8.0,23,0.00,,---,0.00,VWS V14.00,2013-03-16 23:07:00,
2013-03-16 16:12:00,76.5,39.1,29.69,WNW,287,5.0,8.0,26,0.00,,---,0.00,VWS V14.00,2013-03-16 23:12:00,
2013-03-16 16:17:00,76.5,37.1,29.69,NNW,342,0.0,5.0,24,0.00,,---,0.00,VWS V14.00,2013-03-16 23:17:00,
2013-03-16 16:22:00,76.5,38.1,29.69,WNW,288,0.0,7.0,25,0.00,,---,0.00,VWS V14.00,2013-03-16 23:22:00,
2013-03-16 16:27:00,75.8,37.5,29.69,NW,311,4.0,7.0,25,0.00,,---,0.00,VWS V14.00,2013-03-16 23:27:00,
2013-03-16 16:32:00,75.8,37.5,29.69,West,274,6.0,6.0,25,0.00,,---,0.00,VWS V14.00,2013-03-16 23:32:00,
2013-03-16 16:37:00,75.8,39.5,29.69,West,263,0.0,4.0,27,0.00,,---,0.00,VWS V14.00,2013-03-16 23:37:00,
2013-03-16 16:42:00,76.0,38.7,29.69,NW,319,2.0,6.0,26,0.00,,---,0.00,VWS V14.00,2013-03-16 23:42:00,
2013-03-16 16:47:00,76.1,37.8,29.69,WNW,302,1.0,5.0,25,0.00,,---,0.00,VWS V14.00,2013-03-16 23:47:00,
2013-03-16 16:52:00,76.0,37.7,29.69,WSW,247,3.0,6.0,25,0.00,,---,0.00,VWS V14.00,2013-03-16 23:52:00,
2013-03-16 16:57:00,75.8,36.5,29.69,West,271,2.0,6.0,24,0.00,,---,0.00,VWS V14.00,2013-03-16 23:57:00,
2013-03-16 17:02:00,75.8,37.5,29.69,WSW,237,0.0,4.0,25,0.00,,---,0.00,VWS V14.00,2013-03-17 00:02:00,
2013-03-16 17:07:00,75.6,36.3,29.68,WSW,238,0.0,6.0,24,0.00,,---,0.00,VWS V14.00,2013-03-17 00:07:00,
2013-03-16 17:12:00,75.6,35.2,29.68,WSW,239,0.0,2.0,23,0.00,,---,0.00,VWS V14.00,2013-03-17 00:12:00,
2013-03-16 17:17:00,75.4,36.1,29.68,WSW,239,0.0,5.0,24,0.00,,---,0.00,VWS V14.00,2013-03-17 00:17:00,
2013-03-16 17:22:00,75.4,32.8,29.69,WNW,297,0.0,2.0,21,0.00,,---,0.00,VWS V14.00,2013-03-17 00:22:00,
2013-03-16 17:27:00,75.4,31.6,29.69,West,276,0.0,5.0,20,0.00,,---,0.00,VWS V14.00,2013-03-17 00:27:00,
2013-03-16 17:32:00,75.3,30.2,29.69,WNW,290,1.0,5.0,19,0.00,,---,0.00,VWS V14.00,2013-03-17 00:32:00,
2013-03-16 17:37:00,75.1,31.3,29.68,West,266,5.0,5.0,20,0.00,,---,0.00,VWS V14.00,2013-03-17 00:37:00,
2013-03-16 17:42:00,74.9,29.9,29.68,West,266,1.0,1.0,19,0.00,,---,0.00,VWS V14.00,2013-03-17 00:42:00,
2013-03-16 17:47:00,74.9,31.2,29.68,West,266,0.0,1.0,20,0.00,,---,0.00,VWS V14.00,2013-03-17 00:47:00,
2013-03-16 17:52:00,74.7,31.0,29.68,West,274,4.0,4.0,20,0.00,,---,0.00,VWS V14.00,2013-03-17 00:52:00,
2013-03-16 17:57:00,74.7,31.0,29.68,WNW,293,0.0,1.0,20,0.00,,---,0.00,VWS V14.00,2013-03-17 00:57:00,
2013-03-16 18:02:00,74.7,33.4,29.68,WNW,293,0.0,1.0,22,0.00,,---,0.00,VWS V14.00,2013-03-17 01:02:00,
2013-03-16 18:07:00,74.6,33.3,29.67,WNW,293,0.0,0.0,22,0.00,,---,0.00,VWS V14.00,2013-03-17 01:07:00,
2013-03-16 18:12:00,74.4,34.2,29.67,WNW,293,0.0,1.0,23,0.00,,---,0.00,VWS V14.00,2013-03-17 01:12:00,
2013-03-16 18:17:00,74.0,32.8,29.67,WNW,293,0.0,1.0,22,0.00,,---,0.00,VWS V14.00,2013-03-17 01:17:00,
2013-03-16 18:23:00,73.9,32.7,29.67,WNW,293,0.0,0.0,22,0.00,,---,0.00,VWS V14.00,2013-03-17 01:23:00,
2013-03-16 18:28:00,73.7,32.5,29.67,WNW,293,0.0,1.0,22,0.00,,---,0.00,VWS V14.00,2013-03-17 01:28:00,
2013-03-16 18:32:00,73.5,33.5,29.67,WNW,293,0.0,0.0,23,0.00,,---,0.00,VWS V14.00,2013-03-17 01:32:00,
2013-03-16 18:37:00,73.3,33.3,29.68,WNW,293,0.0,0.0,23,0.00,,---,0.00,VWS V14.00,2013-03-17 01:37:00,
2013-03-16 18:43:00,73.0,36.1,29.68,WNW,293,0.0,0.0,26,0.00,,---,0.00,VWS V14.00,2013-03-17 01:43:00,
2013-03-16 18:47:00,72.3,37.4,29.68,WNW,293,0.0,0.0,28,0.00,,---,0.00,VWS V14.00,2013-03-17 01:47:00,
2013-03-16 18:52:00,71.6,36.8,29.68,WNW,293,0.0,0.0,28,0.00,,---,0.00,VWS V14.00,2013-03-17 01:52:00,
2013-03-16 18:57:00,71.1,36.4,29.68,WNW,293,0.0,0.0,28,0.00,,---,0.00,VWS V14.00,2013-03-17 01:57:00,
2013-03-16 19:02:00,70.8,37.0,29.68,WNW,293,0.0,0.0,29,0.00,,---,0.00,VWS V14.00,2013-03-17 02:02:00,
2013-03-16 19:07:00,70.3,35.7,29.68,WNW,293,0.0,0.0,28,0.00,,---,0.00,VWS V14.00,2013-03-17 02:07:00,
2013-03-16 19:12:00,69.9,36.2,29.68,SW,217,2.0,3.0,29,0.00,,---,0.00,VWS V14.00,2013-03-17 02:12:00,
2013-03-16 19:17:00,69.8,37.8,29.68,SW,217,0.0,1.0,31,0.00,,---,0.00,VWS V14.00,2013-03-17 02:17:00,
2013-03-16 19:22:00,69.6,38.5,29.68,SSW,213,0.0,3.0,32,0.00,,---,0.00,VWS V14.00,2013-03-17 02:22:00,
2013-03-16 19:27:00,69.3,39.8,29.68,SSW,213,0.0,1.0,34,0.00,,---,0.00,VWS V14.00,2013-03-17 02:27:00,
2013-03-16 19:32:00,69.1,40.3,29.68,SSW,213,0.0,1.0,35,0.00,,---,0.00,VWS V14.00,2013-03-17 02:32:00,
2013-03-16 19:37:00,68.8,41.5,29.68,SSW,213,0.0,0.0,37,0.00,,---,0.00,VWS V14.00,2013-03-17 02:37:00,
2013-03-16 19:42:00,68.4,41.8,29.68,SSW,213,0.0,1.0,38,0.00,,---,0.00,VWS V14.00,2013-03-17 02:42:00,
2013-03-16 19:47:00,68.1,41.6,29.68,SSW,213,0.0,0.0,38,0.00,,---,0.00,VWS V14.00,2013-03-17 02:47:00,
2013-03-16 19:52:00,67.6,41.8,29.68,SSW,213,0.0,0.0,39,0.00,,---,0.00,VWS V14.00,2013-03-17 02:52:00,
2013-03-16 19:55:00,61.6,45.3,29.70,SSW,212,0.0,0.0,55,0.00,,---,0.00,VWS V14.00,2013-03-17 02:55:00,
2013-03-16 19:56:00,61.6,45.3,29.70,SSW,212,0.0,0.0,55,0.00,,---,0.00,VWS V14.00,2013-03-17 02:56:00,
2013-03-16 19:57:00,67.3,42.8,29.68,SSW,213,0.0,2.0,41,0.00,,---,0.00,VWS V14.00,2013-03-17 02:57:00,
2013-03-16 20:02:00,66.9,43.1,29.68,SSW,213,0.0,1.0,42,0.00,,---,0.00,VWS V14.00,2013-03-17 03:02:00,
2013-03-16 20:07:00,66.8,44.2,29.69,SSW,213,0.0,1.0,44,0.00,,---,0.00,VWS V14.00,2013-03-17 03:07:00,
2013-03-16 20:12:00,66.0,43.5,29.69,SSW,213,0.0,0.0,44,0.00,,---,0.00,VWS V14.00,2013-03-17 03:12:00,
2013-03-16 20:17:00,65.2,43.3,29.69,SSW,213,0.0,1.0,45,0.00,,---,0.00,VWS V14.00,2013-03-17 03:17:00,
2013-03-16 20:22:00,64.7,43.5,29.69,SSW,213,0.0,0.0,46,0.00,,---,0.00,VWS V14.00,2013-03-17 03:22:00,
2013-03-16 20:27:00,64.0,43.4,29.69,SSW,213,0.0,1.0,47,0.00,,---,0.00,VWS V14.00,2013-03-17 03:27:00,
2013-03-16 20:33:00,63.4,43.4,29.69,SSW,213,0.0,0.0,48,0.00,,---,0.00,VWS V14.00,2013-03-17 03:33:00,
2013-03-16 20:38:00,62.9,44.0,29.69,SSW,213,0.0,1.0,50,0.00,,---,0.00,VWS V14.00,2013-03-17 03:38:00,
2013-03-16 20:42:00,62.6,44.2,29.69,SSW,212,0.0,1.0,51,0.00,,---,0.00,VWS V14.00,2013-03-17 03:42:00,
2013-03-16 20:47:00,62.4,44.6,29.69,SSW,212,0.0,0.0,52,0.00,,---,0.00,VWS V14.00,2013-03-17 03:47:00,
2013-03-16 20:52:00,62.1,45.3,29.70,SSW,212,0.0,0.0,54,0.00,,---,0.00,VWS V14.00,2013-03-17 03:52:00,
2013-03-16 20:57:00,61.8,45.5,29.70,SSW,212,0.0,1.0,55,0.00,,---,0.00,VWS V14.00,2013-03-17 03:57:00,
2013-03-16 21:00:00,61.6,45.3,29.70,SSW,212,0.0,0.0,55,0.00,,---,0.00,VWS V14.00,2013-03-17 04:00:00,
2013-03-16 21:05:00,61.5,45.7,29.71,SSW,212,0.0,0.0,56,0.00,,---,0.00,VWS V14.00,2013-03-17 04:05:00,
2013-03-16 21:10:00,61.2,45.4,29.71,SSW,212,0.0,0.0,56,0.00,,---,0.00,VWS V14.00,2013-03-17 04:10:00,
2013-03-16 21:15:00,60.9,45.6,29.71,SSW,212,0.0,0.0,57,0.00,,---,0.00,VWS V14.00,2013-03-17 04:15:00,
2013-03-16 21:20:00,60.7,45.8,29.71,SSW,212,0.0,0.0,58,0.00,,---,0.00,VWS V14.00,2013-03-17 04:20:00,
2013-03-16 21:25:00,60.4,45.6,29.71,SSW,212,0.0,0.0,58,0.00,,---,0.00,VWS V14.00,2013-03-17 04:25:00,
2013-03-16 21:30:00,60.2,45.4,29.71,SSW,212,0.0,0.0,58,0.00,,---,0.00,VWS V14.00,2013-03-17 04:30:00,
2013-03-16 21:35:00,59.9,45.1,29.72,SSW,212,0.0,0.0,58,0.00,,---,0.00,VWS V14.00,2013-03-17 04:35:00,
2013-03-16 21:40:00,59.6,45.3,29.72,SSW,212,0.0,0.0,59,0.00,,---,0.00,VWS V14.00,2013-03-17 04:40:00,
2013-03-16 21:45:00,59.2,44.9,29.72,SSW,212,0.0,0.0,59,0.00,,---,0.00,VWS V14.00,2013-03-17 04:45:00,
2013-03-16 21:50:00,58.9,45.1,29.72,SSW,212,0.0,0.0,60,0.00,,---,0.00,VWS V14.00,2013-03-17 04:50:00,
2013-03-16 21:55:00,58.7,44.9,29.72,SSW,212,0.0,0.0,60,0.00,,---,0.00,VWS V14.00,2013-03-17 04:55:00,
2013-03-16 22:00:00,58.4,45.0,29.72,SSW,212,0.0,0.0,61,0.00,,---,0.00,VWS V14.00,2013-03-17 05:00:00,
2013-03-16 22:05:00,58.1,44.7,29.72,SSW,212,0.0,0.0,61,0.00,,---,0.00,VWS V14.00,2013-03-17 05:05:00,
2013-03-16 22:10:00,58.0,45.1,29.72,SSW,212,0.0,0.0,62,0.00,,---,0.00,VWS V14.00,2013-03-17 05:10:00,
2013-03-16 22:15:00,57.5,44.6,29.72,SSW,212,0.0,0.0,62,0.00,,---,0.00,VWS V14.00,2013-03-17 05:15:00,
2013-03-16 22:20:00,57.3,44.4,29.73,SSW,212,0.0,0.0,62,0.00,,---,0.00,VWS V14.00,2013-03-17 05:20:00,
2013-03-16 22:25:00,57.2,44.3,29.73,SSW,212,0.0,0.0,62,0.00,,---,0.00,VWS V14.00,2013-03-17 05:25:00,
2013-03-16 22:30:00,57.0,44.1,29.73,SSW,212,0.0,0.0,62,0.00,,---,0.00,VWS V14.00,2013-03-17 05:30:00,
2013-03-16 22:35:00,56.9,44.0,29.73,SSW,212,0.0,0.0,62,0.00,,---,0.00,VWS V14.00,2013-03-17 05:35:00,
2013-03-16 22:40:00,56.6,44.2,29.73,SSW,212,0.0,0.0,63,0.00,,---,0.00,VWS V14.00,2013-03-17 05:40:00,
2013-03-16 22:45:00,56.3,44.3,29.73,SSW,212,0.0,0.0,64,0.00,,---,0.00,VWS V14.00,2013-03-17 05:45:00,
2013-03-16 22:50:00,56.0,44.0,29.74,SSW,212,0.0,0.0,64,0.00,,---,0.00,VWS V14.00,2013-03-17 05:50:00,
2013-03-16 22:55:00,55.9,44.3,29.74,SSW,212,0.0,0.0,65,0.00,,---,0.00,VWS V14.00,2013-03-17 05:55:00,
2013-03-16 23:00:00,55.6,44.0,29.74,SSW,212,0.0,0.0,65,0.00,,---,0.00,VWS V14.00,2013-03-17 06:00:00,
2013-03-16 23:05:00,55.4,45.0,29.76,NNW,332,1.0,1.0,68,0.00,,---,0.00,VWS V14.00,2013-03-17 06:05:00,
2013-03-16 23:10:00,55.6,44.8,29.76,NNW,328,0.0,0.0,67,0.00,,---,0.00,VWS V14.00,2013-03-17 06:10:00,
2013-03-16 23:15:00,55.7,44.5,29.76,NNW,328,0.0,0.0,66,0.00,,---,0.00,VWS V14.00,2013-03-17 06:15:00,
2013-03-16 23:20:00,55.7,44.5,29.76,NNW,328,0.0,0.0,66,0.00,,---,0.00,VWS V14.00,2013-03-17 06:20:00,
2013-03-16 23:25:00,55.7,44.5,29.76,NNW,328,0.0,0.0,66,0.00,,---,0.00,VWS V14.00,2013-03-17 06:25:00,
2013-03-16 23:30:00,55.6,44.4,29.76,NNW,328,0.0,0.0,66,0.00,,---,0.00,VWS V14.00,2013-03-17 06:30:00,
2013-03-16 23:35:00,55.4,44.6,29.76,NNW,328,0.0,0.0,67,0.00,,---,0.00,VWS V14.00,2013-03-17 06:35:00,
2013-03-16 23:40:00,55.1,44.3,29.76,NNW,328,0.0,0.0,67,0.00,,---,0.00,VWS V14.00,2013-03-17 06:40:00,
2013-03-16 23:45:00,55.0,44.7,29.76,NNW,328,0.0,0.0,68,0.00,,---,0.00,VWS V14.00,2013-03-17 06:45:00,
2013-03-16 23:50:00,54.7,44.4,29.76,NNW,328,0.0,0.0,68,0.00,,---,0.00,VWS V14.00,2013-03-17 06:50:00,
2013-03-16 23:55:00,54.5,44.2,29.76,NNW,328,0.0,0.0,68,0.00,,---,0.00,VWS V14.00,2013-03-17 06:55:00,